EHI
0 0 0 0 0 0 0 0 0 0 0 0 0 0 0 0 0 0 0 0 0 0 0 0 0 0 0 1 2 3 2 1 0 0 0 0 0 0 0 0 0 0 0 0
0 0 0 0 0 0 0 0 0 0 0 0 0 0 0 0 0 0 0 0 0 0 0 0 0 0 0 1 2 3 2 1 0 0 0 0 0 0 0 0 0 0 0 0
0 0 0 0 0 0 0 0 0 0 0 0 0 0 0 0 0 0 0 0 0 0 0 0 0 0 0 1 2 3 2 1 0 0 0 0 0 0 0 0 0 0 0 0
0 0 0 0 0 0 0 0 0 0 0 0 0 0 0 0 0 0 0 0 0 0 0 0 0 0 0 0 1 2 2 1 0 0 0 0 0 0 0 0 0 0 0 0
0 0 0 0 0 0 0 0 0 0 0 0 0 0 0 0 0 0 0 0 0 0 0 0 0 0 0 0 0 1 2 2 1 0 0 0 0 0 0 0 0 0 0 0
0 0 0 0 0 0 0 0 0 0 0 0 0 0 0 0 0 0 0 0 0 0 0 0 0 0 0 0 0 1 2 2 1 0 0 0 0 0 0 0 0 0 0 0
0 0 0 0 0 0 0 0 0 0 0 0 0 0 0 0 0 0 0 0 0 0 0 0 0 0 0 0 0 0 1 1 0 0 0 0 0 0 0 0 0 0 0 0
0 0 0 0 0 0 0 0 0 0 0 0 0 0 0 0 0 0 0 0 0 0 0 0 0 0 0 0 0 0 0 0 0 0 0 0 0 0 0 0 0 0 0 0
0 0 0 0 0 0 0 0 0 0 0 0 0 0 0 0 0 0 0 0 0 0 0 0 0 0 0 0 0 0 0 0 0 0 0 0 0 0 0 0 0 0 0 0
0 0 0 0 0 0 0 0 0 0 0 0 0 0 0 0 0 0 0 0 0 0 0 0 0 0 0 0 0 0 0 0 0 0 0 0 0 0 0 0 0 0 0 0
0 0 0 0 0 0 0 0 0 0 0 0 0 0 0 0 0 0 0 0 0 0 0 0 0 0 0 0 0 0 0 0 0 0 0 0 0 0 0 0 0 0 0 0
0 0 0 0 0 0 0 0 0 0 0 0 0 0 0 0 0 0 0 0 0 0 0 0 0 0 0 0 0 0 0 0 0 0 0 0 0 0 0 0 0 0 0 0
0 0 0 0 0 0 0 0 0 0 0 0 0 0 0 0 0 0 0 0 0 0 0 0 0 0 0 0 0 0 0 0 0 0 0 0 0 0 0 0 0 0 0 0
0 0 0 0 0 0 0 0 0 0 0 0 0 0 0 0 0 0 0 0 0 0 0 0 0 0 0 0 0 0 0 0 0 0 0 0 0 0 0 0 0 0 0 0
0 0 0 0 0 0 0 0 0 0 0 0 0 0 0 0 0 0 0 0 0 0 0 0 0 0 0 0 0 0 0 0 0 0 0 0 0 0 0 0 0 0 0 0
0 0 0 0 0 0 0 0 0 0 0 0 0 0 0 0 0 0 0 0 0 0 0 0 0 0 0 0 0 0 0 0 0 0 0 0 0 0 0 0 0 0 0 0
0 0 0 0 0 0 0 0 0 0 0 0 0 0 0 0 0 0 0 0 0 0 0 0 0 0 0 0 0 0 0 0 0 0 0 0 0 0 0 0 0 0 0 0
0 0 0 0 0 0 0 0 0 0 0 0 0 0 0 0 0 0 0 0 0 0 0 0 0 0 0 0 0 0 0 0 0 0 0 0 0 0 0 0 0 0 0 0
0 0 0 0 0 0 0 0 0 0 0 0 0 0 0 0 0 0 0 0 0 0 0 0 0 0 0 0 0 0 0 0 0 0 0 0 0 0 0 0 0 0 0 0
0 0 0 0 0 0 0 0 0 0 0 0 0 0 0 0 0 0 0 0 0 0 0 0 0 0 0 0 0 0 0 0 0 0 0 0 0 0 0 0 0 0 0 0
0 0 0 0 0 0 0 0 0 0 0 0 0 0 0 0 0 0 0 0 0 0 0 0 0 0 0 0 0 0 0 0 0 0 0 0 0 0 0 0 0 0 0 0
0 0 0 0 0 0 0 0 0 0 0 0 0 0 0 0 0 0 0 0 0 0 0 0 0 0 0 0 0 0 0 0 0 0 0 0 0 0 0 0 0 0 0 0
0 0 0 0 0 0 0 0 0 0 0 0 0 0 0 0 0 0 0 0 0 0 0 0 0 0 0 0 0 0 0 0 0 0 0 0 0 0 0 0 0 0 0 0
0 0 0 0 0 0 0 0 0 0 0 0 0 0 0 0 0 0 0 0 0 0 0 0 0 0 0 0 0 0 0 0 0 0 0 0 0 0 0 0 0 0 0 0
0 0 0 0 0 0 0 0 0 0 0 0 0 0 0 0 0 0 0 0 0 0 0 0 0 0 0 0 0 0 0 0 0 0 0 0 0 0 0 0 0 0 0 0
0 0 0 0 0 0 0 0 0 0 0 0 0 0 0 0 0 0 0 0 0 0 0 0 0 0 0 0 0 0 0 0 0 0 0 0 0 0 0 0 0 0 0 0
Wind_Speed
4 4 0 2 2 2 1 2 5 7 5 4 6 10 11 7 4 5 5 5 5 6 5 3 3 2 2 2 2 3 3 3 2 1 1 1 1 1 1 1 1 1 1 1
4 1 4 2 1 1 2 3 5 6 4 4 6 11 10 6 5 5 6 6 6 6 5 4 3 2 2 3 3 3 3 3 2 2 2 1 1 1 1 1 1 2 1 1
4 2 2 1 1 1 3 4 5 5 7 4 6 8 6 4 4 4 4 5 4 5 5 5 4 4 3 3 4 4 4 3 3 2 1 1 0 0 0 1 1 1 1 1
1 2 0 1 1 1 4 3 4 4 3 4 2 7 7 4 5 5 5 5 5 4 4 4 4 4 3 4 4 4 4 3 2 2 2 3 2 2 2 2 2 1 1 2
1 1 0 1 3 2 4 3 3 3 2 4 2 4 9 2 5 7 6 6 5 4 4 4 4 4 4 4 3 3 3 2 1 2 3 3 2 1 1 1 1 1 1 1
2 1 1 2 2 2 3 2 2 1 1 3 4 3 8 3 5 6 6 6 5 4 4 5 4 3 3 3 3 3 1 1 1 1 2 2 2 1 1 1 1 1 1 1
3 2 1 1 1 2 3 3 4 5 3 5 2 3 9 6 4 5 6 6 4 4 4 4 4 4 4 4 4 2 1 1 1 1 1 2 2 2 2 2 2 1 1 1
0 3 2 1 2 1 1 3 4 3 4 5 2 6 8 4 4 4 4 5 5 4 4 4 4 4 3 4 3 2 1 1 1 1 1 2 2 1 1 2 1 1 1 1
3 4 1 0 0 3 2 1 2 2 1 4 6 7 8 3 5 6 6 5 6 6 5 5 4 4 3 3 2 2 2 2 1 1 1 2 2 1 1 1 0 0 0 0
3 2 3 2 1 2 2 4 3 2 0 5 7 6 5 6 7 7 7 6 6 6 6 5 4 3 2 2 1 1 1 1 1 1 0 1 1 0 0 0 0 0 1 0
2 2 3 1 2 3 2 2 3 2 2 2 5 8 3 4 4 6 7 7 6 6 6 5 4 2 2 1 1 1 1 1 1 1 1 1 1 1 1 1 1 1 1 0
2 3 2 4 2 1 2 4 4 3 3 3 3 10 4 3 4 5 6 7 6 6 5 5 3 2 1 1 1 1 1 1 1 1 1 1 1 1 1 1 1 1 1 1
4 4 1 4 2 1 0 2 3 3 2 3 4 10 3 4 6 6 5 7 6 6 6 4 3 3 2 2 2 1 1 1 2 1 1 1 1 1 1 1 1 1 1 1
4 3 5 6 5 3 3 3 4 4 3 5 9 11 11 10 9 9 8 6 5 5 5 4 4 3 3 2 2 2 2 2 2 2 2 2 2 1 1 1 1 1 1 2
3 2 3 5 4 2 5 6 6 8 8 8 9 9 13 10 8 7 7 6 5 6 6 5 5 4 3 3 3 2 2 2 2 2 2 2 2 2 2 2 2 2 2 2
2 2 0 3 2 3 6 8 8 8 7 8 9 13 10 8 5 5 5 5 5 6 6 6 6 5 4 3 3 3 2 2 2 1 1 1 2 2 2 2 2 2 2 2
2 3 1 3 4 4 7 7 8 6 6 7 9 10 6 6 6 5 4 5 5 6 6 6 6 5 4 3 3 2 2 2 1 1 1 1 2 2 2 2 2 2 2 2
4 3 2 1 4 5 7 1 4 5 7 8 8 7 6 7 7 5 4 4 5 5 5 6 5 5 4 3 3 2 2 1 1 1 1 1 2 2 2 2 2 1 1 1
3 5 3 1 2 9 8 2 4 4 7 6 8 8 7 6 5 5 3 2 3 4 5 5 4 4 3 3 2 2 2 2 1 1 1 1 1 1 1 1 1 1 1 1
3 3 4 3 2 7 6 1 2 2 6 4 4 5 4 3 3 6 4 3 3 4 4 4 4 3 3 3 1 1 1 2 2 2 1 1 0 1 0 0 0 1 1 1
2 2 3 4 5 10 6 2 3 2 7 3 3 4 3 3 5 6 5 5 4 4 4 4 3 3 3 2 1 1 1 2 2 2 1 1 1 0 0 0 1 1 1 1
7 6 6 5 4 10 3 5 6 7 3 2 3 3 4 5 5 5 5 5 5 5 4 4 3 3 3 2 1 1 1 2 1 1 1 1 1 0 0 1 1 1 1 2
7 8 7 9 9 4 4 6 4 2 3 4 3 4 4 4 4 4 4 4 4 4 4 3 2 3 4 2 1 1 2 1 1 1 1 1 1 1 1 1 1 1 1 1
4 2 3 6 9 6 6 6 5 4 5 5 4 4 3 4 4 4 4 4 4 4 3 3 3 3 4 3 2 1 1 1 1 1 1 1 1 1 1 1 0 1 1 1
5 5 4 7 8 6 5 6 6 5 4 4 4 3 3 3 3 3 3 4 3 3 3 3 2 2 3 3 2 2 1 1 1 1 1 1 1 1 0 0 0 1 1 1
7 8 8 8 6 5 5 4 3 3 4 4 4 3 2 3 3 3 3 3 3 3 3 3 3 3 3 2 2 2 1 1 1 0 0 0 0 0 0 0 1 2 1 1
Wind_Direction
26 60 21 246 210 198 192 235 272 277 297 303 271 277 286 290 281 270 268 267 269 268 274 288 297 295 287 282 283 270 271 260 204 194 184 211 247 236 207 245 266 213 205 195
52 322 262 253 189 183 247 265 277 290 299 299 290 284 281 276 260 258 267 273 270 279 296 306 311 308 306 287 276 268 261 249 215 212 200 209 217 229 216 226 247 225 212 198
151 250 277 150 78 256 278 244 257 277 311 310 306 298 285 285 282 286 282 275 276 269 279 300 308 310 314 304 291 278 266 241 217 209 160 119 67 10 251 271 260 241 234 216
202 291 270 120 267 218 268 259 256 276 314 307 350 301 290 281 291 295 299 299 291 281 275 286 299 309 303 289 289 284 265 231 206 189 174 177 196 220 242 253 254 238 221 218
259 293 120 234 254 215 244 283 264 265 248 289 281 263 285 312 293 289 290 285 284 285 284 287 284 283 288 288 285 286 264 216 194 192 185 193 208 241 236 245 245 230 233 220
247 262 206 235 266 226 269 322 332 3 81 281 251 225 284 269 264 284 290 290 284 292 293 289 286 291 302 311 313 310 273 236 212 202 190 212 211 221 211 244 243 254 258 256
329 300 313 275 348 355 29 57 13 356 348 259 230 225 256 259 263 269 282 292 293 284 289 296 300 303 311 316 314 309 306 262 263 236 214 220 228 227 219 228 230 247 277 286
63 293 291 345 177 198 210 137 152 224 256 288 290 242 256 266 281 284 288 299 313 308 301 291 280 278 282 289 298 315 315 285 256 246 244 224 215 239 260 249 233 236 264 287
171 257 309 261 240 143 131 159 174 141 296 285 274 281 293 299 322 327 329 332 321 313 304 294 283 273 270 274 288 301 301 302 274 253 238 221 222 231 252 278 360 319 311 327
157 246 289 303 87 29 136 146 106 120 261 288 291 278 276 313 319 324 325 319 313 314 310 296 284 281 278 268 280 315 301 300 298 300 330 296 279 247 176 158 76 333 313 333
147 164 305 3 173 192 133 119 127 139 175 203 288 281 251 281 300 303 297 299 301 302 301 298 284 280 284 286 280 322 354 354 330 337 342 329 299 81 81 72 39 3 323 4
151 131 263 259 245 205 174 176 156 162 236 203 233 274 292 298 306 303 301 308 311 310 311 311 313 310 313 314 324 337 359 340 329 343 350 343 29 64 70 53 42 16 343 13
141 124 21 346 344 350 254 193 172 151 148 188 220 268 300 333 328 323 314 319 323 326 330 335 341 339 333 331 335 345 358 356 357 358 24 30 39 50 50 49 52 48 13 27
122 140 183 214 235 198 229 217 182 156 189 229 235 266 297 314 320 324 323 321 323 323 332 340 340 331 333 337 341 350 351 356 18 21 34 31 22 32 38 40 48 47 49 45
110 183 234 261 271 234 233 229 203 202 208 220 252 261 279 299 303 306 310 322 335 335 336 336 332 325 330 335 340 354 355 1 24 27 23 14 17 32 50 44 44 40 46 45
91 154 259 291 280 264 265 251 226 225 226 242 268 277 276 294 303 305 309 319 323 323 326 328 327 327 325 324 330 345 347 353 28 38 3 7 29 38 47 47 47 48 45 39
134 132 121 281 315 332 278 240 201 211 213 203 233 255 300 309 307 300 298 307 305 309 317 319 316 312 310 312 319 321 320 351 21 18 3 20 33 40 36 45 49 50 41 38
144 132 135 312 12 261 249 222 186 213 241 224 246 270 284 279 290 295 288 281 292 305 309 309 309 313 317 324 331 330 340 3 6 6 7 21 33 34 31 49 47 47 49 44
146 137 126 125 278 281 293 249 178 199 274 231 238 267 287 304 315 312 296 275 274 285 294 296 297 302 312 317 323 343 348 358 359 350 352 9 40 45 33 39 29 53 60 40
65 99 124 143 210 253 261 235 165 109 290 264 221 259 287 337 326 301 320 318 311 310 308 310 314 322 322 319 338 7 348 355 324 317 327 355 50 80 32 26 62 62 82 54
130 123 164 186 232 264 258 209 132 168 259 281 225 253 250 233 246 282 314 318 316 317 319 320 321 325 320 327 355 4 351 314 303 331 354 16 45 93 140 97 90 94 86 70
176 172 189 169 209 256 208 146 187 225 268 260 255 256 252 263 284 301 313 316 323 325 327 327 332 329 329 335 6 360 320 303 334 5 22 32 42 52 87 99 78 80 89 82
202 193 189 197 217 249 189 208 237 252 267 266 257 270 266 274 289 305 312 316 317 317 320 329 337 331 330 336 352 322 310 343 21 38 53 53 58 71 89 107 100 85 91 106
242 191 198 253 262 259 253 257 267 258 254 267 266 270 261 266 282 296 306 313 317 320 323 331 343 335 327 332 336 298 314 13 53 56 51 65 78 59 51 69 102 120 140 174
217 174 210 256 274 298 276 245 254 266 272 279 281 267 254 252 275 280 294 304 308 314 322 328 325 315 308 325 346 339 350 72 66 54 54 56 75 81 55 21 253 245 252 231
192 185 191 233 234 216 258 263 254 252 262 263 270 281 272 240 257 277 290 296 302 311 322 330 329 320 314 337 339 337 1 88 98 56 30 54 88 85 107 95 9 359 327 315